{"data":{"norad_id":49198,"epoch":"2026-09-19T22:00:09.632160Z","epoch_age_seconds":72386,"freshness":"FRESH","line1":"1 49198U 21083N   26262.91677815 -.00000001  00000+0 -35092-4 0  9992","line2":"2 49198  87.9166 316.6315 0002151 104.6874 255.4496 13.18686202242497","mean_motion":13.18686202,"eccentricity":0.0002151,"inclination_deg":87.9166,"raan_deg":316.6315,"arg_perigee_deg":104.6874,"mean_anomaly_deg":255.4496,"bstar":-3.5092e-5,"rev_number":24249,"period_min":109.19959561388,"perigee_km":1188.114503172,"apogee_km":1191.3702048701,"semimajor_km":7567.8793540211,"source":"CELESTRAK","updated_at":"2026-09-20T09:00:44.662850Z"}}